Hourly Data Report for October 30, 2014

All times are specified in Local Standard Time (LST). Add 1 hour to adjust for Daylight Saving Time where and when it is observed.

PANGNIRTUNG
NUNAVUT

66°08'36.300" N
65°42'40.500" W
22.60 m
2403049
71826
WXP

Download Data

Hourly Data (October 2014)
Hourly Data Report for October 30, 2014
Temp Definition
°C
Dew Point Temp Definition
°C
Rel Hum Definition
%
Wind Dir Definition
10's deg

Wind Spd Definition
km/h
Visibility Definition
km
Stn Press Definition
kPa
Hmdx Definition


Wind Chill Definition


Weather Definition


TIME
00:00 -1.7 -2.4 95 3 3   100.25   -3 LegendNANA
01:00 -1.5 -2.0 96 7 6   100.23   -4 LegendNANA
02:00 -1.3 -2.0 95 8 5   100.24   -3 LegendNANA
03:00 -1.3 -2.1 94 4 3   100.25   -2 LegendNANA
04:00 -1.0 -1.7 95 32 13   100.23   -5 LegendNANA
05:00 -0.7 -1.8 92 8 5   100.26   -2 LegendNANA
06:00 -0.5 -2.1 89 11 4   100.28   -2 LegendNANA
07:00 0.1 -2.1 85 4 5   100.31     LegendNANA
08:00 -0.2 -1.9 88 9 8   100.32   -3 LegendNANA
09:00 -0.6 -2.0 90 8 10   100.30   -4 LegendNANA
10:00 -0.5 -2.7 85 7 8   100.26   -3 LegendNANA
11:00 0.3 -3.0 78 3 12   100.25     LegendNANA
12:00 0.9 -3.4 73 6 11   100.22     LegendNANA
13:00 1.1 -3.5 71 6 16   100.20     LegendNANA
14:00 0.9 -3.6 72 7 20   100.19     LegendNANA
15:00 1.2 -3.7 70 7 25   100.19     LegendNANA
16:00 1.0 -3.8 70 7 25   100.20     LegendNANA
17:00 0.7 -3.9 71 7 22   100.21     LegendNANA
18:00 0.9 -4.1 69 7 21   100.22     LegendNANA
19:00 1.0 -4.1 69 7 25   100.22     LegendNANA
20:00 1.3 -4.2 67 7 32   100.22     LegendNANA
21:00 1.3 -4.1 68 8 30   100.22     LegendNANA
22:00 1.7 -4.0 66 7 28   100.18     LegendNANA
23:00 1.4 -3.7 69 7 21   100.14     LegendNANA

Notes on Data Quality.

Legend

  • E = Estimated
  • M = Missing
  • NA = Not Available
  • ‡ = Partner data that is not subject to review by the National Climate Archives
Date modified: